Theta_e
319 320 320 319 320 320 320 322 326 324 321 320 321 322 320 322 325 330 328 326 326 326 326 326 326 328 329 329 328 329 328 328 330 331 331 331 330 332 335 335 336 337 340 341
320 320 319 318 320 321 319 323 324 324 321 321 320 321 321 322 325 329 328 326 325 325 325 325 327 327 329 328 328 327 327 328 327 326 328 330 330 330 331 333 334 338 344 343
320 319 318 318 319 320 318 323 326 324 323 320 319 321 322 322 324 329 328 325 324 325 324 326 327 325 326 325 324 322 323 326 325 325 326 325 329 331 332 333 335 336 338 338
318 317 317 316 317 319 319 324 324 323 325 325 322 321 323 326 325 326 328 326 325 324 325 327 326 326 326 325 322 322 322 323 323 324 325 325 324 325 326 333 332 334 336 337
317 316 316 316 316 317 319 324 323 323 323 323 325 322 323 326 326 327 328 328 326 325 325 327 328 328 327 326 326 327 325 326 327 327 326 325 325 326 325 329 331 331 332 337
316 315 316 315 315 315 322 322 323 321 321 321 324 327 323 323 325 325 327 327 327 326 325 325 327 327 326 326 327 327 327 328 329 330 328 329 329 328 330 332 332 331 333 334
315 315 315 313 313 314 317 320 321 322 323 321 321 323 325 328 324 326 326 328 328 327 326 325 326 326 325 325 325 324 325 328 329 329 327 327 328 330 330 330 330 329 330 333
315 315 315 315 314 313 314 318 319 321 324 320 321 323 323 326 329 324 324 328 328 328 326 327 327 326 325 326 326 325 324 326 326 328 329 329 329 331 330 330 331 331 332 332
315 315 315 315 314 313 313 317 317 317 320 322 319 321 321 325 329 330 323 325 328 327 328 327 328 327 328 329 328 326 325 325 326 327 329 330 332 330 328 329 330 327 334 333
314 314 315 314 313 313 313 315 316 317 320 320 320 320 321 322 325 331 330 328 327 326 328 327 327 328 328 329 328 329 330 327 326 328 328 328 332 329 330 336 338 330 328 330
312 312 313 313 312 313 313 316 316 317 319 320 320 321 321 321 324 329 328 327 326 326 329 328 327 327 330 330 328 326 329 334 333 332 335 335 332 331 334 336 335 327 325 328
309 311 312 313 312 311 312 314 317 316 315 317 318 319 319 320 321 322 324 326 327 325 325 328 326 327 330 328 328 328 327 329 332 334 335 333 332 332 330 330 331 334 328 326
307 310 312 313 312 312 312 313 315 315 315 317 319 319 319 319 317 320 323 324 324 325 326 329 327 332 329 329 329 331 331 330 332 333 330 331 331 330 331 331 332 326 335 338
308 310 311 313 311 312 312 314 314 314 314 317 320 322 322 321 319 318 320 322 322 321 322 327 328 330 327 328 330 331 331 331 330 330 329 332 333 333 332 336 337 339 339 338
309 309 311 312 312 313 313 313 314 314 314 318 318 318 321 321 321 321 320 320 321 321 324 326 329 327 326 328 328 330 330 330 330 332 332 330 329 327 334 337 334 326 337 336
309 309 310 312 312 312 313 314 316 315 314 314 320 321 320 321 321 322 322 321 321 321 322 326 325 326 327 330 329 331 329 327 328 329 334 332 332 332 334 336 335 335 335 335
309 310 311 311 312 313 314 316 315 315 314 314 320 323 321 321 321 321 321 321 321 321 322 323 326 326 327 327 327 327 327 327 327 326 329 332 330 337 336 336 335 334 333 332
309 310 311 311 312 313 313 315 314 314 314 316 322 323 323 322 322 322 321 322 322 322 322 322 325 326 327 329 326 326 325 326 328 325 327 329 329 330 330 331 333 333 332 332
310 310 311 311 312 313 315 315 315 314 314 317 322 323 327 322 324 322 321 324 327 323 327 326 326 327 331 328 329 325 325 324 327 326 325 326 330 329 329 330 329 332 332 332
309 310 312 313 314 315 315 313 314 314 314 315 320 320 325 323 324 325 325 325 327 328 327 324 327 328 324 324 327 325 326 325 324 326 325 325 329 329 327 327 332 333 333 331
309 312 313 315 314 315 316 318 319 318 320 319 319 319 322 323 326 327 325 330 329 331 330 328 328 329 330 328 327 326 327 326 325 325 326 325 327 328 328 327 327 329 333 332
311 313 313 315 316 316 319 321 321 321 322 320 321 320 320 323 324 325 324 328 329 330 328 328 330 331 327 328 327 327 327 327 325 325 326 327 325 327 328 327 327 328 331 333
311 312 312 316 318 320 320 322 323 323 321 322 321 322 321 321 323 326 325 326 329 327 331 330 329 329 328 328 327 327 326 326 326 325 326 327 325 325 328 326 327 328 331 333
310 312 313 317 320 320 321 321 323 321 322 322 320 320 322 322 323 325 326 326 325 330 330 330 328 329 327 327 327 327 327 326 326 325 325 326 326 326 327 327 327 328 329 333
311 313 316 318 318 319 320 320 321 321 322 322 323 322 321 323 324 324 325 325 326 327 326 329 328 329 328 327 327 326 326 326 326 326 326 325 326 327 326 326 327 329 330 329
311 313 316 318 320 320 320 321 319 322 322 321 321 324 324 324 324 324 325 323 325 327 327 327 330 332 332 332 331 329 328 327 327 327 326 325 325 328 326 326 327 330 330 330
313 315 317 317 318 319 319 320 320 321 321 320 320 322 324 323 323 322 322 322 323 324 327 329 323 324 329 334 333 332 330 329 327 326 326 326 326 328 327 327 327 331 330 329
Wind_Speed
19 18 20 23 23 21 11 10 6 9 12 12 15 14 23 27 24 10 12 11 14 7 10 3 7 4 2 9 1 4 6 6 10 11 6 8 10 9 8 7 10 8 7 8
18 17 18 20 20 20 21 9 18 7 11 9 12 19 23 27 25 14 13 13 14 6 3 3 6 1 12 7 2 9 8 6 9 12 11 9 9 10 11 8 10 8 7 5
16 15 15 17 17 15 14 8 5 14 11 21 19 17 17 20 31 15 14 16 14 7 8 11 3 5 8 4 3 6 5 11 11 12 15 11 7 12 15 2 7 12 9 14
12 13 14 14 15 13 10 7 6 11 7 6 15 19 19 20 23 15 27 15 16 13 10 10 11 7 11 10 12 5 5 11 13 14 16 16 16 14 13 8 11 11 14 19
12 13 13 13 13 11 7 11 11 14 18 20 18 12 18 21 14 17 20 15 18 14 12 12 9 12 8 5 13 9 11 13 11 12 15 15 17 15 18 10 10 10 14 10
12 13 13 13 10 7 5 12 10 13 14 14 13 13 13 19 19 20 21 19 13 16 13 16 12 6 5 3 8 11 5 9 9 12 15 14 11 11 8 2 8 10 12 8
12 13 12 11 9 6 6 11 10 10 9 9 14 20 24 20 19 17 14 19 14 18 6 16 8 7 10 9 4 10 10 9 7 10 11 14 4 14 9 9 11 15 13 5
13 13 12 12 11 9 6 8 6 8 8 14 16 16 21 27 28 18 13 13 11 14 5 6 6 6 9 11 12 11 11 7 8 10 13 15 8 4 6 14 20 13 15 5
14 13 12 12 12 10 8 7 4 4 7 8 20 16 20 14 14 14 19 15 11 10 6 9 9 8 7 5 5 8 7 6 7 9 13 16 10 9 5 6 14 16 24 4
13 12 12 12 12 11 8 5 6 5 13 21 19 14 12 20 14 7 12 12 13 15 9 10 9 9 8 5 10 5 8 8 10 10 12 11 5 4 6 8 7 15 22 19
13 13 12 11 12 10 7 7 7 7 11 23 23 20 20 15 6 2 12 10 9 11 9 8 6 3 5 9 6 12 9 8 8 10 5 9 5 10 14 7 4 10 14 18
14 14 13 12 11 9 8 7 7 10 12 21 20 23 25 20 11 6 10 12 18 5 7 4 2 6 11 7 8 12 10 8 5 3 3 10 6 8 9 9 13 2 14 21
14 13 12 11 10 9 8 10 9 8 13 26 25 24 24 23 18 17 7 9 10 15 16 7 3 6 8 8 5 7 12 3 4 5 6 25 6 8 6 5 8 11 21 18
13 13 10 11 9 9 7 10 9 9 7 8 7 10 14 13 17 21 22 25 21 20 24 5 2 6 10 5 5 4 8 2 3 8 4 8 9 8 2 4 3 8 20 19
12 10 9 10 8 8 8 11 13 14 8 5 17 24 14 12 18 18 21 21 17 16 8 8 4 21 4 8 3 4 11 5 5 3 13 11 20 21 4 7 17 8 11 21
10 9 9 8 7 6 5 4 4 8 17 5 4 7 16 11 17 15 18 20 18 9 7 12 13 6 3 6 9 19 15 7 5 9 18 8 6 3 10 5 14 15 16 15
7 7 9 8 7 8 7 4 2 5 10 4 6 5 9 15 15 20 17 19 16 19 17 17 15 6 19 9 3 13 5 13 12 5 9 12 7 17 17 12 13 14 18 16
7 7 7 8 9 10 11 11 13 3 9 6 4 6 6 11 12 16 20 18 18 20 17 18 8 1 5 5 8 13 6 4 14 8 9 11 11 8 6 6 9 14 17 16
7 5 4 5 7 5 5 6 6 11 7 5 7 7 2 8 12 18 22 18 9 15 11 15 10 4 1 15 16 4 2 5 8 9 8 10 19 13 9 10 12 17 16 15
5 4 3 4 5 7 4 5 6 7 7 8 7 10 2 6 6 6 2 14 6 9 12 14 10 11 22 35 28 10 4 5 7 13 12 7 22 17 13 10 12 19 20 21
4 4 4 3 3 5 6 6 8 10 6 10 13 19 5 10 4 3 13 3 1 2 5 8 6 9 15 24 20 12 9 8 9 14 13 14 12 19 16 13 12 16 24 23
6 4 6 4 6 7 5 4 5 6 4 5 11 12 13 2 5 5 6 2 2 7 9 7 8 10 31 26 25 17 15 15 14 14 17 14 15 15 20 15 13 11 18 30
4 3 3 5 7 6 6 6 5 5 4 4 6 4 10 8 12 3 3 2 2 5 5 5 5 16 16 16 18 20 22 22 20 16 19 15 17 18 22 20 16 15 15 21
2 3 3 4 5 6 7 2 5 6 6 8 4 6 6 9 4 3 5 5 2 5 4 3 6 16 14 15 16 19 21 21 25 20 20 18 17 21 18 23 19 20 20 19
3 4 3 6 13 10 7 8 4 1 5 6 3 7 7 4 4 2 4 5 4 5 4 3 11 14 13 11 13 15 17 19 20 20 22 19 20 21 21 21 22 24 24 22
4 6 6 14 10 10 10 7 11 7 2 3 3 3 4 4 4 6 7 4 5 1 4 12 14 10 7 6 6 3 2 7 13 17 20 21 23 18 24 22 22 28 28 28
4 9 16 17 11 6 8 7 1 3 7 2 3 4 8 5 5 6 3 5 3 12 9 14 9 5 5 4 2 6 9 10 9 10 16 22 23 18 26 25 25 26 28 30
Wind_Direction
318 322 328 332 337 339 341 294 264 175 183 197 224 231 239 249 262 210 251 261 264 213 245 203 255 276 33 114 2 253 332 291 275 245 252 224 251 250 273 238 257 261 326 289
316 322 331 335 339 342 346 296 276 220 202 234 230 233 251 252 253 242 207 252 249 215 159 227 262 224 99 97 327 27 334 254 247 253 262 216 235 259 235 306 299 265 215 241
315 323 332 335 338 334 338 295 285 216 216 241 265 254 235 245 254 253 207 235 233 206 215 190 201 229 140 120 267 49 310 284 299 294 316 315 277 262 278 261 285 312 303 316
317 322 330 333 333 330 331 257 292 324 297 250 251 260 268 263 245 211 254 208 236 213 206 201 203 238 159 171 153 223 251 250 258 265 278 286 285 279 278 270 281 264 300 305
315 319 327 330 327 328 301 289 337 324 299 303 299 260 253 274 247 242 235 234 213 236 202 229 210 203 209 271 151 201 227 250 275 281 280 279 282 288 287 222 283 303 258 325
313 319 324 325 328 343 315 332 294 282 281 299 298 280 258 262 276 249 228 230 232 223 232 227 242 220 207 230 214 238 238 263 278 283 293 304 261 265 342 206 217 246 275 295
313 316 319 323 327 305 294 312 305 281 274 262 272 326 313 307 252 264 254 240 220 239 248 257 229 206 230 224 260 254 230 268 276 265 280 275 331 43 11 332 296 289 243 190
308 309 312 314 320 312 283 294 296 297 270 259 274 302 322 313 312 264 273 218 285 250 193 235 226 234 253 254 243 230 266 230 253 270 270 265 271 34 323 305 284 264 278 255
298 303 307 311 314 314 298 284 263 275 310 255 256 303 307 304 319 310 241 248 263 245 263 204 214 226 234 241 229 199 261 256 248 268 276 286 358 35 343 349 288 259 353 86
290 296 302 306 309 310 294 260 273 242 262 268 268 269 293 318 349 307 301 307 216 255 246 229 211 224 276 215 243 175 208 223 241 234 242 265 136 222 182 267 349 19 13 10
282 287 293 301 304 302 294 261 259 253 276 273 269 274 276 290 17 358 308 302 190 221 238 250 211 261 210 244 245 255 252 212 238 251 305 271 78 199 224 8 41 30 15 304
273 278 285 294 295 294 292 280 271 261 256 265 278 269 263 248 253 285 292 306 296 256 225 236 249 221 270 229 235 204 244 271 323 38 266 330 268 265 285 306 320 180 172 219
268 270 277 288 291 284 273 253 252 272 287 295 267 261 256 248 236 216 252 290 353 344 337 295 177 299 239 243 228 211 209 260 234 154 229 238 318 319 326 322 69 351 215 173
263 260 270 286 285 279 266 252 257 257 284 282 339 359 234 244 225 218 219 256 288 307 308 298 254 241 219 253 138 143 272 91 259 254 271 83 28 324 158 124 84 137 120 113
263 256 260 281 275 275 271 262 256 250 235 307 301 304 266 222 214 220 219 229 265 285 306 254 167 235 284 294 144 170 197 211 201 35 128 164 243 249 276 138 93 64 127 117
265 242 254 268 259 271 292 294 255 253 231 277 286 310 257 225 213 211 210 215 227 244 278 296 276 38 351 239 231 156 176 106 173 92 152 141 178 113 314 142 106 135 104 117
240 241 257 251 249 256 225 253 215 214 219 245 274 249 213 217 209 204 210 212 218 222 252 272 296 91 293 277 153 297 14 148 126 127 147 150 156 157 180 155 119 114 122 119
227 239 259 242 254 267 268 256 243 235 201 258 268 267 195 205 194 199 202 191 202 206 233 250 240 40 345 256 160 149 127 251 141 162 178 192 163 145 151 156 131 127 128 131
219 244 254 272 258 242 235 230 224 241 229 283 266 256 302 317 262 199 192 188 196 203 205 225 232 173 201 274 308 110 123 265 166 171 211 213 159 158 164 181 177 166 161 157
207 204 233 242 226 217 216 140 183 216 221 234 252 270 172 272 353 290 281 186 198 189 220 207 222 236 209 233 259 209 199 278 257 188 210 223 177 164 170 193 178 174 180 167
189 212 232 246 251 193 212 224 209 192 222 215 240 236 222 215 175 258 347 47 148 246 211 196 205 227 229 230 237 199 208 234 248 242 231 213 212 175 175 194 187 185 181 173
207 238 251 220 207 227 235 221 217 213 247 227 209 204 208 125 118 174 334 315 351 236 164 194 224 207 217 222 216 218 219 228 237 237 242 212 205 205 176 191 187 184 173 170
253 232 257 217 213 229 234 208 209 212 251 163 205 169 176 176 177 130 110 303 224 320 255 208 219 211 160 208 213 227 221 234 237 232 229 219 201 212 189 185 188 179 160 174
233 216 264 248 216 232 222 247 276 199 314 283 157 208 190 192 222 139 156 186 19 284 208 259 292 187 184 208 219 217 230 232 239 220 224 218 213 199 195 180 185 175 171 167
235 229 232 244 250 266 284 277 282 38 57 16 2 67 313 231 138 197 231 185 193 225 281 90 169 181 181 190 199 208 216 223 228 220 214 214 216 198 184 183 188 178 174 179
231 240 260 268 277 284 312 0 360 28 86 105 79 42 298 156 267 183 213 207 204 291 353 10 18 24 153 150 166 183 225 220 224 214 206 211 215 208 181 181 190 180 180 180
243 240 240 254 259 284 313 300 118 155 209 132 115 213 223 314 230 227 228 242 324 162 107 124 108 78 333 6 261 232 232 235 243 235 216 209 212 212 180 183 188 183 185 187